Date String (YYYY-MM-DD hh:mm:ss) UTC,Instrument flags,Ambient pressure (hPa),Sample flow (lpm),Bypass flow (lpm),Sample temperature (°C),Ambient temperature (°C),ASC tube jacket temperature (°C),LED temperature (°C),Box temperature (°C),Sample RH (%),Span deviation,Mass concentration (μg/m³),Mass concentration (μg/m³),Mass concentration (μg/m³)
DateTimeUTC,F1_M11,P_M11,Q1_M11,Q2_M11,T1_M11,T2_M11,T3_M11,T4_M11,T5_M11,U1_M11,ZSPAN_M11,X0_M11,X2_M11,X1_M11
2021-10-27 08:00:00,,0820.7,5.01,0.00,25.5,24.6,00.0,34.5,27.3,12.5,0000.0,0001.40,0000.57,0000.38
2021-10-27 08:01:00,,0820.7,5.00,0.00,25.5,24.6,00.0,34.5,27.3,12.5,0000.0,0001.42,0000.59,0000.40
2021-10-27 08:02:00,,0820.7,5.00,0.00,25.5,24.6,00.0,34.5,27.3,12.5,0000.0,0001.12,0000.58,0000.42
2021-10-27 08:03:00,,0820.7,4.99,0.00,25.5,24.6,00.0,34.5,27.3,11.7,0000.0,0001.00,0000.58,0000.44
2021-10-27 08:04:00,,0820.7,5.01,0.00,25.5,24.7,00.0,34.5,27.3,11.4,0000.0,0002.41,0000.60,0000.46
2021-10-27 08:05:00,,0820.7,4.99,0.00,25.5,24.7,00.0,34.5,27.3,11.5,0000.0,0003.38,0000.60,0000.47
2021-10-27 08:06:00,,0820.7,5.00,0.00,25.5,24.7,00.0,34.5,27.3,13.2,0000.0,0003.46,0000.61,0000.47
2021-10-27 08:07:00,,0820.8,5.01,0.00,25.5,24.7,00.0,34.5,27.3,13.2,0000.0,0003.80,0000.64,0000.46
2021-10-27 08:08:00,,0820.7,5.01,0.00,25.4,24.6,00.0,34.5,27.2,13.0,0000.0,0004.01,0000.68,0000.45
2021-10-27 08:09:00,,0820.7,5.00,0.00,25.4,24.6,00.0,34.5,27.2,12.6,0000.0,0004.09,0000.69,0000.45
2021-10-27 08:10:00,,0820.8,5.00,0.00,25.4,24.5,00.0,34.5,27.2,12.7,0000.0,0004.16,0000.70,0000.44
2021-10-27 08:11:00,,0820.8,4.99,0.00,25.4,24.5,00.0,34.5,27.2,13.0,0000.0,0004.08,0000.69,0000.42
2021-10-27 08:12:00,,0820.7,5.01,0.00,25.4,24.5,00.0,34.5,27.2,12.5,0000.0,0004.15,0000.70,0000.41
2021-10-27 08:13:00,,0820.7,4.99,0.00,25.3,24.5,00.0,34.5,27.1,11.3,0000.0,0004.21,0000.71,0000.42
2021-10-27 08:14:00,,0820.7,4.99,0.00,25.3,24.5,00.0,34.5,27.1,11.3,0000.0,0004.24,0000.73,0000.43
2021-10-27 08:15:00,,0820.8,5.01,0.00,25.3,24.5,00.0,34.5,27.1,12.1,0000.0,0002.95,0000.73,0000.43
2021-10-27 08:16:00,,0820.9,5.01,0.00,25.3,24.5,00.0,34.5,27.1,12.6,0000.0,0001.91,0000.74,0000.44
2021-10-27 08:17:00,,0820.9,5.01,0.00,25.3,24.4,00.0,34.4,27.1,12.7,0000.0,0001.97,0000.78,0000.45
2021-10-27 08:18:00,,0820.9,4.99,0.00,25.3,24.4,00.0,34.4,27.1,12.4,0000.0,0001.69,0000.77,0000.47
2021-10-27 08:19:00,,0820.9,5.00,0.00,25.3,24.4,00.0,34.4,27.1,12.6,0000.0,0001.55,0000.77,0000.50
2021-10-27 08:20:00,,0820.9,5.01,0.00,25.3,24.4,00.0,34.4,27.0,12.7,0000.0,0001.70,0000.80,0000.51
2021-10-27 08:21:00,,0820.9,5.00,0.00,25.3,24.4,00.0,34.4,27.1,12.7,0000.0,0001.78,0000.81,0000.52
2021-10-27 08:22:00,,0820.9,4.99,0.00,25.3,24.4,00.0,34.4,27.1,12.4,0000.0,0001.76,0000.82,0000.54
2021-10-27 08:23:00,,0821.0,5.01,0.00,25.3,24.4,00.0,34.4,27.1,12.1,0000.0,0001.66,0000.80,0000.55
2021-10-27 08:24:00,,0821.0,5.00,0.00,25.3,24.4,00.0,34.4,27.0,12.0,0000.0,0001.60,0000.79,0000.55
2021-10-27 08:25:00,,0821.0,4.99,0.00,25.3,24.4,00.0,34.4,27.0,12.2,0000.0,0001.64,0000.80,0000.55
2021-10-27 08:26:00,,0821.0,5.01,0.00,25.3,24.4,00.0,34.4,27.1,12.1,0000.0,0001.68,0000.82,0000.55
2021-10-27 08:27:00,,0821.0,4.99,0.00,25.3,24.4,00.0,34.4,27.1,11.9,0000.0,0001.78,0000.87,0000.55
2021-10-27 08:28:00,,0821.0,5.00,0.00,25.3,24.4,00.0,34.4,27.1,11.8,0000.0,0001.72,0000.84,0000.54
2021-10-27 08:29:00,,0821.0,5.01,0.00,25.3,24.4,00.0,34.4,27.1,12.0,0000.0,0001.66,0000.83,0000.53
2021-10-27 08:30:00,,0821.0,5.00,0.00,25.3,24.5,00.0,34.4,27.1,11.8,0000.0,0001.62,0000.81,0000.52
2021-10-27 08:31:00,,0821.0,5.00,0.00,25.3,24.5,00.0,34.4,27.1,11.7,0000.0,0001.37,0000.77,0000.53
2021-10-27 08:32:00,,0821.0,5.01,0.00,25.3,24.4,00.0,34.4,27.1,11.7,0000.0,0001.28,0000.77,0000.53
2021-10-27 08:33:00,,0821.0,4.99,0.00,25.3,24.4,00.0,34.4,27.0,11.7,0000.0,0001.92,0000.79,0000.54
2021-10-27 08:34:00,,0821.0,5.01,0.00,25.3,24.4,00.0,34.4,27.0,11.9,0000.0,0002.04,0000.82,0000.54
2021-10-27 08:35:00,,0821.0,4.98,0.00,25.3,24.4,00.0,34.4,27.0,12.0,0000.0,0002.06,0000.84,0000.55
2021-10-27 08:36:00,,0821.0,5.01,0.00,25.3,24.4,00.0,34.4,27.0,11.7,0000.0,0001.97,0000.82,0000.55
2021-10-27 08:37:00,,0821.0,5.01,0.00,25.3,24.3,00.0,34.4,26.9,11.1,0000.0,0001.86,0000.78,0000.55
2021-10-27 08:38:00,,0821.0,5.01,0.00,25.3,24.3,00.0,34.4,26.9,11.4,0000.0,0001.75,0000.73,0000.55
2021-10-27 08:39:00,,0821.0,5.01,0.00,25.2,24.3,00.0,34.4,26.9,11.2,0000.0,0001.77,0000.74,0000.56
2021-10-27 08:40:00,,0821.0,5.00,0.00,25.2,24.3,00.0,34.4,26.9,11.0,0000.0,0001.76,0000.74,0000.56
2021-10-27 08:41:00,,0821.0,4.99,0.00,25.2,24.2,00.0,34.4,26.9,11.0,0000.0,0001.87,0000.74,0000.56
2021-10-27 08:42:00,,0821.0,5.01,0.00,25.2,24.2,00.0,34.4,26.9,10.8,0000.0,0001.88,0000.75,0000.56
2021-10-27 08:43:00,,0821.1,5.00,0.00,25.2,24.2,00.0,34.4,26.9,10.7,0000.0,0001.82,0000.73,0000.56
2021-10-27 08:44:00,,0821.0,5.00,0.00,25.2,24.2,00.0,34.4,26.9,10.8,0000.0,0001.40,0000.71,0000.56
2021-10-27 08:45:00,,0821.1,5.00,0.00,25.2,24.2,00.0,34.3,26.9,10.9,0000.0,0001.79,0000.73,0000.57
2021-10-27 08:46:00,,0821.1,5.00,0.00,25.2,24.1,00.0,34.3,26.9,11.1,0000.0,0001.87,0000.75,0000.58
2021-10-27 08:47:00,,0821.1,5.00,0.00,25.1,24.1,00.0,34.3,26.8,11.4,0000.0,0001.93,0000.78,0000.59
2021-10-27 08:48:00,,0821.1,5.00,0.00,25.1,24.0,00.0,34.3,26.7,11.9,0000.0,0002.01,0000.83,0000.61
2021-10-27 08:49:00,,0821.1,5.01,0.00,25.1,24.0,00.0,34.3,26.7,12.1,0000.0,0002.13,0000.89,0000.64
2021-10-27 08:50:00,,0821.1,5.00,0.00,25.1,24.0,00.0,34.3,26.8,12.2,0000.0,0002.11,0000.90,0000.66
2021-10-27 08:51:00,,0821.1,4.98,0.00,25.1,24.0,00.0,34.3,26.7,12.2,0000.0,0002.13,0000.91,0000.69
2021-10-27 08:52:00,,0821.1,5.00,0.00,25.1,24.0,00.0,34.3,26.7,12.2,0000.0,0002.03,0000.92,0000.71
2021-10-27 08:53:00,,0821.1,5.00,0.00,25.0,24.0,00.0,34.3,26.7,12.1,0000.0,0002.07,0000.92,0000.73
2021-10-27 08:54:00,,0821.1,4.99,0.00,25.0,24.0,00.0,34.3,26.7,12.1,0000.0,0002.17,0000.95,0000.75
2021-10-27 08:55:00,,0821.1,4.99,0.00,25.0,24.0,00.0,34.3,26.7,12.0,0000.0,0002.23,0000.99,0000.77
2021-10-27 08:56:00,,0821.2,5.00,0.00,25.0,24.0,00.0,34.2,26.7,12.0,0000.0,0002.33,0000.97,0000.79
2021-10-27 08:57:00,,0821.2,5.01,0.00,25.0,24.0,00.0,34.2,26.7,12.0,0000.0,0003.20,0000.96,0000.79
2021-10-27 08:58:00,,0821.2,5.00,0.00,25.0,24.0,00.0,34.2,26.7,12.0,0000.0,0003.15,0000.95,0000.80
2021-10-27 08:59:00,,0821.2,4.99,0.00,25.0,24.0,00.0,34.2,26.7,12.0,0000.0,0003.13,0000.94,0000.80
